Time,TemperatureF,DewpointF,PressureIn,WindDirection,WindDirectionDegrees,WindSpeedMPH,WindSpeedGustMPH,Humidity,HourlyPrecipIn,Conditions,Clouds,dailyrainin,SoftwareType,DateUTC
2013-03-08 00:02:00,46.0,42.0,30.22,WSW,250,0.0,0.0,86,0.00,,,0.00,,2013-03-08 05:02:00,
2013-03-08 00:12:00,46.0,42.0,30.22,WSW,250,0.0,0.0,86,0.00,,,0.00,,2013-03-08 05:12:00,
2013-03-08 00:22:00,45.0,41.0,30.22,WSW,250,0.0,0.0,86,0.00,,,0.00,,2013-03-08 05:22:00,
2013-03-08 00:32:00,45.0,41.0,30.22,WSW,250,0.0,0.0,87,0.00,,,0.00,,2013-03-08 05:32:00,
2013-03-08 00:42:00,45.0,41.0,30.22,WSW,250,0.0,0.0,87,0.00,,,0.00,,2013-03-08 05:42:00,
2013-03-08 00:52:00,45.0,41.0,30.22,WSW,250,0.0,0.0,87,0.00,,,0.00,,2013-03-08 05:52:00,
2013-03-08 01:01:00,44.0,40.0,30.21,WSW,250,0.0,0.0,87,0.00,,,0.00,,2013-03-08 06:01:00,
2013-03-08 01:11:00,44.0,40.0,30.21,WSW,250,0.0,0.0,87,0.00,,,0.00,,2013-03-08 06:11:00,
2013-03-08 01:22:00,44.0,41.0,30.22,WSW,250,0.0,0.0,88,0.00,,,0.00,,2013-03-08 06:22:00,
2013-03-08 01:32:00,44.0,41.0,30.22,WSW,250,0.0,0.0,88,0.00,,,0.00,,2013-03-08 06:32:00,
2013-03-08 01:42:00,44.0,41.0,30.22,WSW,250,0.0,0.0,88,0.00,,,0.00,,2013-03-08 06:42:00,
2013-03-08 01:52:00,44.0,41.0,30.22,WSW,250,0.0,0.0,89,0.00,,,0.00,,2013-03-08 06:52:00,
2013-03-08 02:01:00,43.0,40.0,30.22,WSW,250,0.0,0.0,89,0.00,,,0.00,,2013-03-08 07:01:00,
2013-03-08 02:11:00,43.0,40.0,30.22,WSW,250,0.0,0.0,89,0.00,,,0.00,,2013-03-08 07:11:00,
2013-03-08 02:22:00,43.0,40.0,30.22,WSW,250,0.0,0.0,88,0.00,,,0.00,,2013-03-08 07:22:00,
2013-03-08 02:32:00,42.0,39.0,30.21,WSW,250,0.0,0.0,89,0.00,,,0.00,,2013-03-08 07:32:00,
2013-03-08 02:42:00,42.0,39.0,30.21,WSW,250,0.0,0.0,89,0.00,,,0.00,,2013-03-08 07:42:00,
2013-03-08 02:52:00,42.0,39.0,30.21,WSW,250,0.0,0.0,89,0.00,,,0.00,,2013-03-08 07:52:00,
2013-03-08 03:01:00,42.0,39.0,30.21,WSW,250,0.0,0.0,89,0.00,,,0.00,,2013-03-08 08:01:00,
2013-03-08 03:11:00,42.0,39.0,30.21,WSW,250,0.0,0.0,89,0.00,,,0.00,,2013-03-08 08:11:00,
2013-03-08 03:22:00,42.0,39.0,30.20,WSW,250,0.0,0.0,89,0.00,,,0.00,,2013-03-08 08:22:00,
2013-03-08 03:32:00,41.0,38.0,30.19,WSW,250,0.0,0.0,90,0.00,,,0.00,,2013-03-08 08:32:00,
2013-03-08 03:42:00,41.0,38.0,30.19,WSW,250,0.0,0.0,90,0.00,,,0.00,,2013-03-08 08:42:00,
2013-03-08 03:52:00,41.0,38.0,30.19,WSW,250,0.0,0.0,90,0.00,,,0.00,,2013-03-08 08:52:00,
2013-03-08 04:03:00,41.0,38.0,30.19,WSW,250,0.0,0.0,90,0.00,,,0.00,,2013-03-08 09:03:00,
2013-03-08 04:11:00,41.0,38.0,30.19,WSW,250,0.0,0.0,90,0.00,,,0.00,,2013-03-08 09:11:00,
2013-03-08 04:21:00,41.0,38.0,30.19,WSW,250,0.0,0.0,90,0.00,,,0.00,,2013-03-08 09:21:00,
2013-03-08 04:32:00,41.0,38.0,30.19,WSW,250,0.0,0.0,90,0.00,,,0.00,,2013-03-08 09:32:00,
2013-03-08 04:42:00,41.0,38.0,30.19,WSW,250,0.0,0.0,90,0.00,,,0.00,,2013-03-08 09:42:00,
2013-03-08 04:52:00,40.0,37.0,30.19,WSW,250,0.0,0.0,90,0.00,,,0.00,,2013-03-08 09:52:00,
2013-03-08 05:01:00,40.0,37.0,30.19,WSW,250,0.0,0.0,90,0.00,,,0.00,,2013-03-08 10:01:00,
2013-03-08 05:11:00,40.0,37.0,30.19,WSW,250,0.0,0.0,90,0.00,,,0.00,,2013-03-08 10:11:00,
2013-03-08 05:21:00,40.0,38.0,30.19,WSW,250,0.0,0.0,91,0.00,,,0.00,,2013-03-08 10:21:00,
2013-03-08 05:32:00,40.0,38.0,30.20,WSW,250,0.0,0.0,91,0.00,,,0.00,,2013-03-08 10:32:00,
2013-03-08 05:42:00,40.0,38.0,30.20,WSW,250,0.0,0.0,91,0.00,,,0.00,,2013-03-08 10:42:00,
2013-03-08 05:52:00,40.0,38.0,30.21,WSW,250,0.0,0.0,91,0.00,,,0.00,,2013-03-08 10:52:00,
2013-03-08 06:01:00,40.0,38.0,30.21,WSW,250,0.0,0.0,91,0.00,,,0.00,,2013-03-08 11:01:00,
2013-03-08 06:11:00,40.0,38.0,30.21,WSW,250,0.0,0.0,91,0.00,,,0.00,,2013-03-08 11:11:00,
2013-03-08 06:21:00,40.0,38.0,30.21,WSW,250,0.0,0.0,91,0.00,,,0.00,,2013-03-08 11:21:00,
2013-03-08 06:32:00,39.0,36.0,30.21,WSW,250,0.0,0.0,90,0.00,,,0.00,,2013-03-08 11:32:00,
2013-03-08 06:42:00,39.0,36.0,30.21,WSW,250,0.0,0.0,90,0.00,,,0.00,,2013-03-08 11:42:00,
2013-03-08 06:52:00,39.0,37.0,30.21,WSW,250,0.0,0.0,91,0.00,,,0.00,,2013-03-08 11:52:00,
2013-03-08 07:02:00,39.0,37.0,30.22,WSW,250,0.0,0.0,91,0.00,,,0.00,,2013-03-08 12:02:00,
2013-03-08 07:11:00,39.0,37.0,30.22,WSW,250,0.0,0.0,91,0.00,,,0.00,,2013-03-08 12:11:00,
2013-03-08 07:22:00,39.0,37.0,30.22,WSW,250,0.0,0.0,91,0.00,,,0.00,,2013-03-08 12:22:00,
2013-03-08 07:32:00,39.0,37.0,30.22,WSW,250,0.0,0.0,91,0.00,,,0.00,,2013-03-08 12:32:00,
2013-03-08 07:43:00,39.0,37.0,30.22,WSW,250,0.0,0.0,91,0.00,,,0.00,,2013-03-08 12:43:00,
2013-03-08 07:53:00,40.0,38.0,30.23,WSW,250,0.0,0.0,93,0.00,,,0.00,,2013-03-08 12:53:00,
2013-03-08 08:01:00,42.0,40.0,30.24,WSW,250,0.0,0.0,93,0.00,,,0.00,,2013-03-08 13:01:00,
2013-03-08 08:11:00,42.0,40.0,30.24,WSW,250,0.0,0.0,93,0.00,,,0.00,,2013-03-08 13:11:00,
2013-03-08 08:22:00,44.0,42.0,30.24,WSW,250,0.0,0.0,92,0.00,,,0.00,,2013-03-08 13:22:00,
2013-03-08 08:32:00,46.0,43.0,30.24,WSW,250,0.0,1.0,88,0.00,,,0.00,,2013-03-08 13:32:00,
2013-03-08 08:42:00,46.0,43.0,30.24,WSW,250,0.0,1.0,88,0.00,,,0.00,,2013-03-08 13:42:00,
2013-03-08 08:52:00,48.0,43.0,30.24,WSW,250,0.0,1.0,83,0.00,,,0.00,,2013-03-08 13:52:00,
2013-03-08 09:03:00,50.0,44.0,30.24,WSW,250,0.0,4.0,79,0.00,,,0.00,,2013-03-08 14:03:00,
2013-03-08 09:12:00,50.0,44.0,30.24,WSW,250,0.0,4.0,79,0.00,,,0.00,,2013-03-08 14:12:00,
2013-03-08 09:22:00,52.0,45.0,30.24,WSW,250,0.0,2.0,77,0.00,,,0.00,,2013-03-08 14:22:00,
2013-03-08 09:32:00,55.0,45.0,30.25,WSW,250,1.0,4.0,70,0.00,,,0.00,,2013-03-08 14:32:00,
2013-03-08 09:42:00,55.0,45.0,30.25,WSW,250,1.0,4.0,70,0.00,,,0.00,,2013-03-08 14:42:00,
2013-03-08 09:53:00,58.0,45.0,30.25,WSW,250,1.0,4.0,61,0.00,,,0.00,,2013-03-08 14:53:00,
2013-03-08 10:03:00,60.0,44.0,30.25,North,9,0.0,4.0,56,0.00,,,0.00,,2013-03-08 15:03:00,
2013-03-08 10:12:00,62.0,43.0,30.25,North,10,1.0,3.0,50,0.00,,,0.00,,2013-03-08 15:12:00,
2013-03-08 10:22:00,62.0,43.0,30.25,North,10,1.0,3.0,50,0.00,,,0.00,,2013-03-08 15:22:00,
2013-03-08 10:32:00,63.0,40.0,30.25,NNE,23,1.0,6.0,42,0.00,,,0.00,,2013-03-08 15:32:00,
2013-03-08 10:42:00,63.0,40.0,30.25,NNE,23,1.0,6.0,42,0.00,,,0.00,,2013-03-08 15:42:00,
2013-03-08 10:53:00,64.0,43.0,30.25,NE,42,1.0,7.0,46,0.00,,,0.00,,2013-03-08 15:53:00,
2013-03-08 11:01:00,65.0,43.0,30.24,North,5,0.0,5.0,44,0.00,,,0.00,,2013-03-08 16:01:00,
2013-03-08 11:11:00,65.0,43.0,30.24,North,5,0.0,5.0,44,0.00,,,0.00,,2013-03-08 16:11:00,
2013-03-08 11:22:00,65.0,43.0,30.24,ENE,57,2.0,6.0,44,0.00,,,0.00,,2013-03-08 16:22:00,
2013-03-08 11:32:00,66.0,42.0,30.24,WNW,288,1.0,4.0,41,0.00,,,0.00,,2013-03-08 16:32:00,
2013-03-08 11:42:00,66.0,42.0,30.24,WNW,288,1.0,4.0,41,0.00,,,0.00,,2013-03-08 16:42:00,
2013-03-08 11:52:00,67.0,43.0,30.24,NNE,26,1.0,5.0,41,0.00,,,0.00,,2013-03-08 16:52:00,
2013-03-08 12:03:00,69.0,42.0,30.23,NE,51,2.0,7.0,37,0.00,,,0.00,,2013-03-08 17:03:00,
2013-03-08 12:11:00,69.0,42.0,30.23,NE,51,2.0,7.0,37,0.00,,,0.00,,2013-03-08 17:11:00,
2013-03-08 12:21:00,69.0,42.0,30.22,North,355,1.0,4.0,37,0.00,,,0.00,,2013-03-08 17:21:00,
2013-03-08 12:32:00,71.0,40.0,30.22,ENE,71,1.0,5.0,33,0.00,,,0.00,,2013-03-08 17:32:00,
2013-03-08 12:42:00,71.0,40.0,30.22,ENE,71,1.0,5.0,33,0.00,,,0.00,,2013-03-08 17:42:00,
2013-03-08 12:52:00,71.0,39.0,30.22,WNW,288,4.0,9.0,31,0.00,,,0.00,,2013-03-08 17:52:00,
2013-03-08 13:02:00,72.0,38.0,30.21,NNE,20,3.0,7.0,29,0.00,,,0.00,,2013-03-08 18:02:00,
2013-03-08 13:11:00,72.0,38.0,30.21,NNE,20,3.0,7.0,29,0.00,,,0.00,,2013-03-08 18:11:00,
2013-03-08 13:22:00,74.0,40.0,30.21,West,269,2.0,6.0,29,0.00,,,0.00,,2013-03-08 18:22:00,
2013-03-08 13:32:00,73.0,40.0,30.19,NE,41,0.0,9.0,30,0.00,,,0.00,,2013-03-08 18:32:00,
2013-03-08 13:42:00,73.0,40.0,30.19,NE,41,0.0,9.0,30,0.00,,,0.00,,2013-03-08 18:42:00,
2013-03-08 13:52:00,74.0,38.0,30.18,NE,51,1.0,6.0,27,0.00,,,0.00,,2013-03-08 18:52:00,
2013-03-08 14:01:00,74.0,37.0,30.18,NE,49,0.0,10.0,26,0.00,,,0.00,,2013-03-08 19:01:00,
2013-03-08 14:11:00,74.0,37.0,30.18,NE,49,0.0,10.0,26,0.00,,,0.00,,2013-03-08 19:11:00,
2013-03-08 14:22:00,75.0,36.0,30.17,NNE,30,1.0,10.0,24,0.00,,,0.00,,2013-03-08 19:22:00,
2013-03-08 14:32:00,76.0,37.0,30.16,NE,35,3.0,5.0,24,0.00,,,0.00,,2013-03-08 19:32:00,
2013-03-08 14:42:00,76.0,37.0,30.16,NE,35,3.0,5.0,24,0.00,,,0.00,,2013-03-08 19:42:00,
2013-03-08 14:52:00,76.0,38.0,30.16,NW,322,0.0,5.0,25,0.00,,,0.00,,2013-03-08 19:52:00,
2013-03-08 15:01:00,76.0,37.0,30.15,NE,53,1.0,4.0,24,0.00,,,0.00,,2013-03-08 20:01:00,
2013-03-08 15:11:00,76.0,37.0,30.15,NE,53,1.0,4.0,24,0.00,,,0.00,,2013-03-08 20:11:00,
2013-03-08 15:22:00,77.0,36.0,30.14,ENE,57,2.0,9.0,23,0.00,,,0.00,,2013-03-08 20:22:00,
2013-03-08 15:32:00,76.0,33.0,30.14,WNW,296,2.0,7.0,21,0.00,,,0.00,,2013-03-08 20:32:00,
2013-03-08 15:42:00,76.0,33.0,30.14,WNW,296,2.0,7.0,21,0.00,,,0.00,,2013-03-08 20:42:00,
2013-03-08 15:53:00,76.0,33.0,30.14,NNE,17,1.0,6.0,21,0.00,,,0.00,,2013-03-08 20:53:00,
2013-03-08 16:02:00,75.0,35.0,30.14,North,360,1.0,7.0,23,0.00,,,0.00,,2013-03-08 21:02:00,
2013-03-08 16:11:00,75.0,35.0,30.14,North,360,1.0,7.0,23,0.00,,,0.00,,2013-03-08 21:11:00,
2013-03-08 16:22:00,75.0,34.0,30.14,NE,45,1.0,7.0,22,0.00,,,0.00,,2013-03-08 21:22:00,
2013-03-08 16:32:00,74.0,34.0,30.14,NNE,25,1.0,6.0,23,0.00,,,0.00,,2013-03-08 21:32:00,
2013-03-08 16:42:00,74.0,34.0,30.14,NNE,25,1.0,6.0,23,0.00,,,0.00,,2013-03-08 21:42:00,
2013-03-08 16:52:00,73.0,34.0,30.14,NNE,28,0.0,7.0,24,0.00,,,0.00,,2013-03-08 21:52:00,
2013-03-08 17:01:00,75.0,35.0,30.14,NNE,27,1.0,6.0,23,0.00,,,0.00,,2013-03-08 22:01:00,
2013-03-08 17:11:00,75.0,35.0,30.14,NNE,27,1.0,6.0,23,0.00,,,0.00,,2013-03-08 22:11:00,
2013-03-08 17:22:00,75.0,36.0,30.14,NE,38,0.0,5.0,24,0.00,,,0.00,,2013-03-08 22:22:00,
2013-03-08 17:32:00,75.0,36.0,30.14,NE,44,0.0,3.0,24,0.00,,,0.00,,2013-03-08 22:32:00,
2013-03-08 17:42:00,75.0,36.0,30.14,NE,44,0.0,3.0,24,0.00,,,0.00,,2013-03-08 22:42:00,
2013-03-08 17:53:00,73.0,41.0,30.14,NE,47,2.0,6.0,32,0.00,,,0.00,,2013-03-08 22:53:00,
2013-03-08 18:02:00,70.0,43.0,30.14,NNE,17,2.0,5.0,38,0.00,,,0.00,,2013-03-08 23:02:00,
2013-03-08 18:12:00,70.0,43.0,30.14,NNE,17,2.0,5.0,38,0.00,,,0.00,,2013-03-08 23:12:00,
2013-03-08 18:22:00,69.0,44.0,30.15,ENE,74,3.0,7.0,41,0.00,,,0.00,,2013-03-08 23:22:00,
2013-03-08 18:32:00,67.0,45.0,30.16,NE,39,2.0,5.0,45,0.00,,,0.00,,2013-03-08 23:32:00,
2013-03-08 18:42:00,67.0,45.0,30.16,NE,39,2.0,5.0,45,0.00,,,0.00,,2013-03-08 23:42:00,
2013-03-08 18:53:00,65.0,44.0,30.16,NE,40,1.0,5.0,47,0.00,,,0.00,,2013-03-08 23:53:00,
2013-03-08 19:02:00,64.0,45.0,30.18,NE,56,2.0,6.0,51,0.00,,,0.00,,2013-03-09 00:02:00,
2013-03-08 19:12:00,64.0,45.0,30.18,NE,56,2.0,6.0,51,0.00,,,0.00,,2013-03-09 00:12:00,
2013-03-08 19:22:00,63.0,46.0,30.19,East,85,1.0,5.0,53,0.00,,,0.00,,2013-03-09 00:22:00,
2013-03-08 19:32:00,62.0,46.0,30.19,ENE,77,2.0,5.0,56,0.00,,,0.00,,2013-03-09 00:32:00,
2013-03-08 19:42:00,62.0,46.0,30.19,ENE,77,2.0,5.0,56,0.00,,,0.00,,2013-03-09 00:42:00,
2013-03-08 19:52:00,61.0,46.0,30.19,East,84,0.0,5.0,58,0.00,,,0.00,,2013-03-09 00:52:00,
2013-03-08 20:02:00,60.0,46.0,30.20,ESE,108,1.0,6.0,60,0.00,,,0.00,,2013-03-09 01:02:00,
2013-03-08 20:12:00,60.0,46.0,30.20,ESE,103,1.0,3.0,60,0.00,,,0.00,,2013-03-09 01:12:00,
2013-03-08 20:22:00,60.0,46.0,30.20,ESE,103,1.0,3.0,60,0.00,,,0.00,,2013-03-09 01:22:00,
2013-03-08 20:32:00,59.0,46.0,30.20,East,95,0.0,3.0,62,0.00,,,0.00,,2013-03-09 01:32:00,
2013-03-08 20:42:00,59.0,46.0,30.20,East,95,0.0,3.0,62,0.00,,,0.00,,2013-03-09 01:42:00,
2013-03-08 20:52:00,58.0,45.0,30.20,ENE,57,2.0,5.0,63,0.00,,,0.00,,2013-03-09 01:52:00,
2013-03-08 21:01:00,58.0,46.0,30.21,ENE,57,0.0,2.0,64,0.00,,,0.00,,2013-03-09 02:01:00,
2013-03-08 21:11:00,58.0,46.0,30.21,ENE,57,0.0,2.0,64,0.00,,,0.00,,2013-03-09 02:11:00,
2013-03-08 21:21:00,57.0,45.0,30.21,ENE,57,0.0,1.0,65,0.00,,,0.00,,2013-03-09 02:21:00,
2013-03-08 21:31:00,56.0,45.0,30.21,ENE,57,0.0,0.0,66,0.00,,,0.00,,2013-03-09 02:31:00,
2013-03-08 21:41:00,55.0,45.0,30.22,ENE,57,0.0,0.0,68,0.00,,,0.00,,2013-03-09 02:41:00,
2013-03-08 21:51:00,55.0,45.0,30.22,ENE,57,0.0,0.0,68,0.00,,,0.00,,2013-03-09 02:51:00,
2013-03-08 22:01:00,54.0,45.0,30.22,ENE,57,0.0,0.0,71,0.00,,,0.00,,2013-03-09 03:01:00,
2013-03-08 22:11:00,54.0,45.0,30.22,ENE,57,0.0,0.0,71,0.00,,,0.00,,2013-03-09 03:11:00,
2013-03-08 22:21:00,53.0,44.0,30.22,ENE,57,0.0,0.0,72,0.00,,,0.00,,2013-03-09 03:21:00,
2013-03-08 22:31:00,52.0,44.0,30.22,ENE,57,0.0,0.0,74,0.00,,,0.00,,2013-03-09 03:31:00,
2013-03-08 22:41:00,52.0,44.0,30.22,ENE,57,0.0,0.0,74,0.00,,,0.00,,2013-03-09 03:41:00,
2013-03-08 22:52:00,51.0,43.0,30.22,ENE,57,0.0,0.0,75,0.00,,,0.00,,2013-03-09 03:52:00,
2013-03-08 23:01:00,51.0,44.0,30.22,ENE,57,0.0,0.0,76,0.00,,,0.00,,2013-03-09 04:01:00,
2013-03-08 23:11:00,51.0,44.0,30.22,ENE,57,0.0,0.0,76,0.00,,,0.00,,2013-03-09 04:11:00,
2013-03-08 23:22:00,50.0,43.0,30.22,ENE,57,0.0,0.0,78,0.00,,,0.00,,2013-03-09 04:22:00,
2013-03-08 23:32:00,50.0,44.0,30.22,ENE,57,0.0,0.0,79,0.00,,,0.00,,2013-03-09 04:32:00,
2013-03-08 23:42:00,50.0,44.0,30.22,ENE,57,0.0,0.0,79,0.00,,,0.00,,2013-03-09 04:42:00,
2013-03-08 23:52:00,49.0,43.0,30.22,ENE,57,0.0,0.0,80,0.00,,,0.00,,2013-03-09 04:52:00,